Budapest Lorinc, Hungary

2:30 AM CET on February 10, 2016 (GMT +0100)
Budapest Lorinc

Weather History for 12843 - April, 2014

Change the Weather History Date:

Saturday, April 19, 2014

  Actual Average Record
Temperature  
Mean Temperature 60 °F -  
Max Temperature 68 °F 67 °F - ()
Min Temperature 51 °F 48 °F - ()
Degree Days  
Heating Degree Days 4    
Growing Degree Days 10 (Base 50)    
Moisture  
Dew Point 42 °F    
Average Humidity 44    
Maximum Humidity 64    
Minimum Humidity 26    
Precipitation  
Precipitation 0.08 in 0.06 in - ()
Sea Level Pressure  
Sea Level Pressure 29.71 in    
Wind  
Wind Speed 7 mph ()    
Max Wind Speed 13 mph    
Max Gust Speed -    
Visibility 16.0 miles    
Events Rain    
T = Trace of Precipitation, MM = Missing Value Source: Averaged Metar Reports

Daily Weather History Graph

Daily Weather History Graph

Search for Another Location

Airport or City:

Trip Planner

Search our weather history database for the weather conditions in past years. The results will help you decide how hot, cold, wet, or windy it might be!

Date:

Astronomy

Apr. 19, 2014 Rise Set
Actual Time 5:47 AM CEST 7:37 PM CEST
Civil Twilight 5:15 AM CEST 8:10 PM CEST
Nautical Twilight 4:35 AM CEST 8:50 PM CEST
Astronomical Twilight 3:51 AM CEST 9:35 PM CEST
Moon No Moon Rise 8:39 AM CEST (4/19)
Length of Visible Light 14h 55m
Length of Day
13h 50m
Waning Gibbous, 81% of the Moon is Illuminated
Apr 19
Waning Gibbous
Apr 22
Last Quarter
Apr 29
New
May 7
First Quarter
May 14
Full

Hourly Weather History & Observations

Time (CEST) Temp. Dew Point Humidity Pressure Visibility Wind Dir Wind Speed Gust Speed Precip Events Conditions
12:00 AM 59 °F 39 °F 36% 29.71 in 19 mi NNW 6.7 mph - -   Partly Cloudy
1:00 AM 57 °F 38 °F 38% 29.71 in 19 mi NNW 6.7 mph - -   Partly Cloudy
2:00 AM 56 °F 38 °F 39% 29.70 in 19 mi NNW 6.7 mph - -   Partly Cloudy
3:00 AM 56 °F 40 °F 43% 29.68 in 19 mi North 8.9 mph - -   Partly Cloudy
4:00 AM 56 °F 40 °F 44% 29.69 in 19 mi North 6.7 mph - -   Partly Cloudy
5:00 AM 55 °F 42 °F 50% 29.68 in 16 mi NNW 8.9 mph - -   Partly Cloudy
6:00 AM 54 °F 42 °F 53% 29.68 in 16 mi North 6.7 mph - -   Partly Cloudy
7:00 AM 56 °F 42 °F 49% 29.68 in 16 mi North 6.7 mph - -   Partly Cloudy
8:00 AM 60 °F 42 °F 41% 29.68 in 16 mi North 8.9 mph - -   Partly Cloudy
9:00 AM 62 °F 43 °F 38% 29.69 in 19 mi North 8.9 mph - -   Partly Cloudy
10:00 AM 67 °F 40 °F 26% 29.69 in 19 mi NE 11.2 mph - -   Partly Cloudy
11:00 AM 65 °F 41 °F 29% 29.70 in 25 mi East 11.2 mph - - Rain Light Rain Showers
12:00 PM 63 °F 43 °F 36% 29.72 in 19 mi ENE 6.7 mph - - Rain Light Rain Showers
1:00 PM 65 °F 42 °F 32% 29.71 in 19 mi ENE 13.4 mph - - Rain Light Rain Showers
2:00 PM 65 °F 44 °F 36% 29.72 in 19 mi East 8.9 mph - - Rain Light Rain Showers
3:00 PM 67 °F 44 °F 32% 29.71 in 9 mi East 8.9 mph - -   Partly Cloudy
4:00 PM 66 °F 43 °F 31% 29.69 in 12 mi East 8.9 mph - -   Partly Cloudy
5:00 PM 59 °F 48 °F 58% 29.72 in 2 mi ESE 4.5 mph - - Rain Light Rain
6:00 PM 59 °F 43 °F 45% 29.72 in 11 mi NE 4.5 mph - - Rain Light Rain
7:00 PM 57 °F 44 °F 51% 29.73 in 16 mi North 6.7 mph - - Rain Light Rain
8:00 PM 55 °F 45 °F 59% 29.75 in 16 mi North 4.5 mph - -   Partly Cloudy
9:00 PM 54 °F 43 °F 57% 29.77 in 25 mi NNE 6.7 mph - -   Partly Cloudy
10:00 PM 53 °F 43 °F 59% 29.77 in 25 mi NE 4.5 mph - -   Partly Cloudy
11:00 PM 51 °F 42 °F 64% 29.79 in 25 mi NNE 4.5 mph - -   Partly Cloudy